Terug naar catalogus

STARLINK-3253

ActiefCommunicatieVLEO
NORAD 51136·PAYLOAD·🇺🇸 United States

Gelanceerd Jan 19, 2022 vanaf Cape Canaveral Space Force Station

Loading…

Volgende Passages (komende 24 uur)

TLE

VersSource: CelesTrak SupGP

Epoch: Sep 14, 2026, 20:22 UTC

1 51136C 22005AJ  26257.84909722 -.00028673  00000+0 -84726-3 0  2572
2 51136  53.1572 155.7969 0001262  96.3003  34.2245 15.34400972    11

Volg STARLINK-3253 in realtime met AllMySat

Download on the App Store